Location: Lucerne Valley
(34.4439°N, 116.9669°E)
Time: 07:05:06
(UTC-07:00)

Vanguard 2 - Visible Passes

Search period start: 23 June 2018 00:00
Search period end: 03 July 2018 00:00
Orbit: 553 x 2939 km, 32.9° (Epoch: 22 June)

Date Brightness Start Highest point End Pass type
(mag) Time Alt. Az. Time Alt. Az. Time Alt. Az.
23 Jun 8.4 11:37:07 41° SSW 11:38:53 49° SSE 11:44:10 10° E visible
24 Jun 10.1 09:52:14 18° ESE 09:52:14 18° ESE 09:54:04 10° E visible
24 Jun 8.1 11:53:36 33° SW 11:56:59 60° SSE 12:02:16 10° E visible
25 Jun 9.5 10:08:38 32° ESE 10:08:38 32° ESE 10:12:28 10° E visible
25 Jun 8.0 12:10:01 23° WSW 12:15:06 70° S 12:20:19 10° E visible
26 Jun 8.9 10:24:58 49° SE 10:24:58 49° SE 10:30:42 10° E visible
26 Jun 7.9 12:26:20 15° W 12:33:14 77° S 12:38:21 10° E visible
27 Jun 10.7 08:39:50 11° E 08:39:50 11° E 08:40:10 10° E visible
27 Jun 8.7 10:41:11 58° SSW 10:42:11 61° SSE 10:48:49 10° E visible
27 Jun 7.9 12:43:12 10° W 12:51:21 79° S 12:56:22 10° E visible
28 Jun 11.3 06:30:07 10° S 06:32:03 13° S 06:32:03 13° S visible
28 Jun 10.2 08:55:53 23° ESE 08:55:53 23° ESE 08:58:39 10° E visible
28 Jun 8.5 10:57:13 45° SW 11:00:21 70° S 11:06:53 10° E visible
28 Jun 7.8 13:01:34 10° W 13:09:27 76° S 13:14:22 10° ESE visible
29 Jun 11.0 06:45:46 10° SSW 06:51:28 20° S 06:51:28 20° S visible
29 Jun 9.6 09:11:41 40° ESE 09:11:41 40° ESE 09:16:56 10° E visible
29 Jun 8.5 11:13:00 30° WSW 11:18:30 77° S 11:24:56 10° E visible
29 Jun 7.8 13:19:55 10° W 13:27:32 68° SSW 13:32:20 10° ESE visible
30 Jun 11.1 05:00:59 10° SSE 05:04:36 11° SE 05:08:03 10° SE visible
30 Jun 10.5 07:02:15 10° SSW 07:25:46 10° E 07:11:39 29° S visible
30 Jun 9.1 09:12:47 10° WSW 09:27:01 61° SSE 09:35:07 10° E visible
30 Jun 8.4 11:28:15 17° W 11:36:41 81° S 11:42:58 10° E visible
01 Jul 11.0 05:13:19 10° S 05:22:48 17° SE 05:31:07 10° ESE visible
01 Jul 9.9 07:19:16 10° SW 07:39:40 28° ESE 07:44:20 10° E visible
01 Jul 9.0 09:30:54 10° WSW 09:44:55 70° SSE 09:53:13 10° E visible
01 Jul 8.4 11:44:15 10° W 11:54:51 81° S 12:00:59 10° E visible
02 Jul 10.7 05:28:32 10° S 05:40:57 24° SE 05:51:17 10° E visible
02 Jul 9.7 07:36:41 10° SW 07:52:16 51° SSE 08:02:42 10° E visible
02 Jul 9.0 09:49:12 10° WSW 10:03:08 77° S 10:11:17 10° E visible
02 Jul 8.3 12:02:42 10° W 12:12:59 76° S 12:18:59 10° ESE visible
